{"data":{"norad_id":60187,"intl_designator":"2024-124E","name":"STARLINK-11194 [DTC]","alt_names":[],"object_type":"PAYLOAD","status":"ACTIVE","operator":null,"country":"US","launch_date":"2024-07-03","launch_site_code":"AFETR","launch_vehicle":null,"mission":null,"orbit_class":"UNKNOWN","rcs_meters":null,"size_class":null,"mass_kg":null,"dimensions":null,"purposes":["comms"],"wikipedia_slug":null,"has_3d_model":false,"image_url":null,"decayed_at":null,"tle_current":{"epoch":"2026-05-24T23:59:36.117312Z","epoch_age_seconds":78248,"freshness":"FRESH","line1":"1 60187U 24124E   26144.99972358  .00002170  00000+0  22759-4 0  9992","line2":"2 60187  53.1591 144.7668 0001138  82.6232 277.4915 15.69712754108528","mean_motion":15.69712754,"eccentricity":0.0001138,"inclination_deg":53.1591,"raan_deg":144.7668,"arg_perigee_deg":82.6232,"mean_anomaly_deg":277.4915,"bstar":2.2759e-5,"rev_number":10852,"period_min":91.736529268208,"perigee_km":358.95210153952,"apogee_km":360.48563753543,"semimajor_km":6737.8558695375,"source":"CELESTRAK","updated_at":"2026-05-25T13:38:19.193946Z"}}}